QPF
0.00 0.00 0.00 0.00 0.00 0.00 0.00 0.00 0.00 0.00 0.00 0.00 0.00 0.00 0.00 0.00 0.00 0.00 0.00 0.00 0.00 0.00 0.00 0.00 0.00 0.00 0.00 0.00 0.00 0.00 0.00 0.00 0.00 0.00 0.00 0.00 0.00 0.00 0.00 0.00 0.00 0.00 0.00
0.00 0.00 0.00 0.00 0.00 0.00 0.00 0.00 0.00 0.00 0.00 0.00 0.00 0.00 0.00 0.00 0.00 0.00 0.00 0.00 0.00 0.00 0.00 0.00 0.00 0.00 0.00 0.00 0.00 0.00 0.00 0.00 0.00 0.00 0.00 0.00 0.00 0.00 0.00 0.00 0.00 0.00 0.00
0.00 0.00 0.00 0.00 0.00 0.00 0.00 0.00 0.00 0.00 0.00 0.00 0.00 0.00 0.00 0.00 0.00 0.00 0.00 0.00 0.00 0.00 0.00 0.00 0.00 0.00 0.00 0.00 0.00 0.00 0.00 0.00 0.00 0.00 0.00 0.00 0.00 0.00 0.00 0.00 0.00 0.00 0.00
0.00 0.00 0.00 0.00 0.00 0.00 0.00 0.00 0.00 0.00 0.00 0.00 0.00 0.00 0.00 0.00 0.00 0.00 0.00 0.00 0.00 0.00 0.00 0.00 0.00 0.00 0.00 0.00 0.00 0.00 0.00 0.00 0.00 0.00 0.00 0.00 0.00 0.00 0.00 0.00 0.00 0.00 0.00
0.00 0.00 0.00 0.00 0.00 0.00 0.00 0.00 0.00 0.00 0.00 0.00 0.00 0.00 0.00 0.00 0.00 0.00 0.00 0.00 0.00 0.00 0.00 0.00 0.00 0.00 0.00 0.00 0.00 0.00 0.00 0.00 0.00 0.00 0.00 0.00 0.00 0.00 0.00 0.00 0.00 0.00 0.00
0.00 0.00 0.00 0.00 0.00 0.00 0.00 0.00 0.00 0.00 0.00 0.00 0.00 0.00 0.00 0.00 0.00 0.00 0.00 0.00 0.00 0.00 0.00 0.00 0.00 0.00 0.00 0.00 0.00 0.00 0.00 0.00 0.00 0.00 0.00 0.00 0.00 0.00 0.00 0.00 0.00 0.00 0.00
0.00 0.00 0.00 0.00 0.00 0.00 0.00 0.00 0.00 0.00 0.00 0.00 0.00 0.00 0.00 0.00 0.00 0.00 0.00 0.00 0.00 0.00 0.00 0.00 0.00 0.00 0.00 0.00 0.00 0.00 0.00 0.00 0.00 0.00 0.00 0.00 0.00 0.00 0.00 0.00 0.00 0.00 0.00
0.00 0.00 0.00 0.00 0.00 0.00 0.00 0.00 0.00 0.00 0.00 0.00 0.00 0.00 0.00 0.00 0.00 0.00 0.00 0.00 0.00 0.00 0.00 0.00 0.00 0.00 0.00 0.00 0.00 0.00 0.00 0.00 0.00 0.00 0.00 0.00 0.00 0.00 0.00 0.00 0.00 0.00 0.00
0.00 0.00 0.00 0.00 0.00 0.00 0.00 0.00 0.00 0.00 0.00 0.00 0.00 0.00 0.00 0.00 0.00 0.00 0.00 0.00 0.00 0.00 0.00 0.00 0.00 0.00 0.00 0.00 0.00 0.00 0.00 0.00 0.00 0.00 0.00 0.00 0.00 0.00 0.00 0.00 0.00 0.00 0.00
0.00 0.00 0.00 0.00 0.00 0.00 0.00 0.00 0.00 0.00 0.00 0.00 0.00 0.00 0.00 0.00 0.00 0.00 0.00 0.00 0.00 0.00 0.00 0.00 0.00 0.00 0.00 0.00 0.00 0.00 0.00 0.00 0.00 0.00 0.00 0.00 0.00 0.00 0.00 0.00 0.00 0.00 0.00
0.00 0.00 0.00 0.00 0.00 0.00 0.00 0.00 0.00 0.00 0.00 0.00 0.00 0.00 0.00 0.00 0.00 0.00 0.00 0.00 0.00 0.00 0.00 0.00 0.00 0.00 0.00 0.00 0.00 0.00 0.00 0.00 0.00 0.00 0.00 0.00 0.00 0.00 0.00 0.00 0.00 0.00 0.00
0.00 0.00 0.00 0.00 0.00 0.00 0.00 0.00 0.00 0.00 0.00 0.00 0.00 0.00 0.00 0.00 0.00 0.00 0.00 0.00 0.00 0.00 0.00 0.00 0.00 0.00 0.00 0.00 0.00 0.00 0.00 0.00 0.00 0.00 0.00 0.00 0.00 0.00 0.00 0.00 0.00 0.00 0.00
0.00 0.00 0.00 0.00 0.00 0.00 0.00 0.00 0.00 0.00 0.00 0.00 0.00 0.00 0.00 0.00 0.00 0.00 0.00 0.00 0.00 0.00 0.00 0.00 0.00 0.00 0.00 0.00 0.00 0.00 0.00 0.00 0.00 0.00 0.00 0.00 0.00 0.00 0.00 0.00 0.00 0.00 0.00
0.00 0.00 0.00 0.00 0.00 0.00 0.00 0.00 0.00 0.00 0.00 0.00 0.00 0.00 0.00 0.00 0.00 0.00 0.00 0.00 0.00 0.00 0.00 0.00 0.00 0.00 0.00 0.00 0.00 0.00 0.00 0.00 0.00 0.00 0.00 0.00 0.00 0.00 0.00 0.00 0.00 0.00 0.00
0.00 0.00 0.00 0.00 0.00 0.00 0.00 0.00 0.00 0.00 0.00 0.00 0.00 0.00 0.00 0.00 0.00 0.00 0.00 0.00 0.00 0.00 0.00 0.00 0.00 0.00 0.00 0.00 0.00 0.00 0.00 0.00 0.00 0.00 0.00 0.00 0.00 0.00 0.00 0.00 0.00 0.00 0.00
0.00 0.00 0.00 0.00 0.00 0.00 0.00 0.00 0.00 0.00 0.00 0.00 0.00 0.00 0.00 0.00 0.00 0.00 0.00 0.00 0.00 0.00 0.00 0.00 0.00 0.00 0.00 0.00 0.00 0.00 0.00 0.00 0.00 0.00 0.00 0.00 0.00 0.00 0.00 0.00 0.00 0.00 0.00
0.00 0.00 0.00 0.00 0.00 0.00 0.00 0.00 0.00 0.00 0.00 0.00 0.00 0.00 0.00 0.00 0.00 0.00 0.00 0.00 0.00 0.00 0.00 0.00 0.00 0.00 0.00 0.00 0.00 0.00 0.00 0.00 0.00 0.00 0.00 0.00 0.00 0.00 0.00 0.00 0.00 0.00 0.00
0.00 0.00 0.00 0.00 0.00 0.00 0.00 0.00 0.00 0.00 0.00 0.00 0.00 0.00 0.00 0.00 0.00 0.00 0.00 0.00 0.00 0.00 0.00 0.00 0.00 0.00 0.00 0.00 0.00 0.00 0.00 0.00 0.00 0.00 0.00 0.00 0.00 0.00 0.00 0.00 0.00 0.00 0.00
0.00 0.00 0.00 0.00 0.00 0.00 0.00 0.00 0.00 0.00 0.00 0.00 0.00 0.00 0.00 0.00 0.00 0.00 0.00 0.00 0.00 0.00 0.00 0.00 0.00 0.00 0.00 0.00 0.00 0.00 0.00 0.00 0.00 0.00 0.00 0.00 0.00 0.00 0.00 0.00 0.00 0.00 0.00
0.00 0.00 0.00 0.00 0.00 0.00 0.00 0.00 0.00 0.00 0.00 0.00 0.00 0.00 0.00 0.00 0.00 0.00 0.00 0.00 0.00 0.00 0.00 0.00 0.00 0.00 0.00 0.00 0.00 0.00 0.00 0.00 0.00 0.00 0.00 0.00 0.00 0.00 0.00 0.00 0.00 0.00 0.00
0.00 0.00 0.00 0.00 0.00 0.00 0.00 0.00 0.00 0.00 0.00 0.00 0.00 0.00 0.00 0.00 0.00 0.00 0.00 0.00 0.00 0.00 0.00 0.00 0.00 0.01 0.00 0.00 0.00 0.00 0.00 0.00 0.00 0.00 0.00 0.00 0.00 0.00 0.00 0.00 0.00 0.00 0.00
0.00 0.00 0.00 0.00 0.00 0.00 0.00 0.00 0.00 0.00 0.00 0.00 0.00 0.00 0.00 0.00 0.00 0.00 0.00 0.00 0.00 0.00 0.00 0.02 0.02 0.00 0.00 0.00 0.00 0.00 0.00 0.01 0.01 0.00 0.00 0.00 0.00 0.00 0.00 0.00 0.00 0.00 0.00
0.00 0.00 0.00 0.00 0.00 0.00 0.00 0.00 0.00 0.00 0.00 0.00 0.00 0.00 0.00 0.00 0.00 0.00 0.00 0.00 0.00 0.00 0.01 0.01 0.00 0.00 0.00 0.00 0.00 0.01 0.01 0.01 0.00 0.00 0.00 0.00 0.00 0.00 0.00 0.00 0.00 0.00 0.00
0.00 0.00 0.00 0.00 0.00 0.00 0.00 0.00 0.00 0.00 0.00 0.00 0.00 0.00 0.00 0.00 0.00 0.00 0.00 0.00 0.00 0.00 0.00 0.00 0.00 0.00 0.00 0.00 0.02 0.03 0.00 0.00 0.00 0.00 0.00 0.00 0.00 0.00 0.00 0.00 0.00 0.00 0.00
0.00 0.00 0.00 0.00 0.00 0.00 0.00 0.00 0.00 0.00 0.00 0.00 0.00 0.00 0.00 0.00 0.00 0.00 0.00 0.00 0.00 0.00 0.00 0.00 0.00 0.00 0.00 0.00 0.00 0.00 0.00 0.00 0.00 0.00 0.00 0.00 0.00 0.00 0.00 0.00 0.00 0.00 0.00
0.00 0.00 0.00 0.00 0.00 0.00 0.00 0.00 0.00 0.00 0.00 0.00 0.00 0.00 0.00 0.00 0.00 0.00 0.00 0.00 0.00 0.00 0.00 0.00 0.00 0.00 0.00 0.00 0.00 0.00 0.00 0.01 0.01 0.01 0.00 0.02 0.01 0.00 0.02 0.00 0.00 0.00 0.00
MSLP
1014.89 1014.99 1015.34 1015.85 1016.08 1016.14 1016.58 1016.80 1016.91 1017.04 1017.10 1017.05 1016.96 1016.99 1017.12 1017.15 1017.06 1017.51 1017.59 1017.62 1017.73 1017.75 1017.76 1017.66 1017.75 1017.79 1017.61 1017.50 1017.43 1017.37 1017.28 1017.27 1017.11 1016.90 1016.79 1016.68 1016.52 1016.31 1016.15 1015.98 1015.85 1015.74 1015.64
1014.61 1015.17 1015.71 1016.25 1016.47 1016.55 1016.80 1016.86 1017.15 1017.25 1017.44 1017.42 1017.15 1017.10 1017.17 1017.31 1017.25 1017.44 1017.76 1017.85 1017.84 1018.10 1018.16 1018.10 1018.20 1018.13 1018.02 1017.81 1017.62 1017.56 1017.43 1017.40 1017.32 1017.08 1016.95 1016.77 1016.60 1016.40 1016.16 1015.96 1015.87 1015.77 1015.63
1014.42 1015.33 1016.02 1016.57 1016.69 1016.77 1016.88 1017.13 1017.44 1017.48 1017.77 1017.64 1017.57 1017.29 1017.28 1017.48 1017.45 1017.40 1017.72 1018.04 1018.14 1018.33 1018.41 1018.36 1018.54 1018.40 1018.35 1018.10 1017.85 1017.74 1017.66 1017.55 1017.47 1017.31 1017.11 1016.90 1016.74 1016.49 1016.24 1015.89 1015.77 1015.73 1015.60
1014.45 1015.44 1016.25 1016.63 1016.72 1016.94 1017.28 1017.65 1017.91 1018.06 1018.17 1018.03 1017.94 1017.60 1017.73 1017.58 1017.51 1017.58 1017.68 1018.01 1018.25 1018.52 1018.70 1018.53 1018.62 1018.47 1018.46 1018.25 1018.01 1017.89 1017.83 1017.75 1017.68 1017.44 1017.26 1017.03 1016.76 1016.57 1016.25 1015.85 1015.58 1015.56 1015.44
1014.57 1015.28 1015.88 1016.45 1016.93 1017.33 1017.64 1017.91 1018.20 1018.32 1018.49 1018.43 1018.11 1017.82 1017.82 1017.79 1017.65 1017.55 1017.84 1017.94 1018.17 1018.53 1018.71 1018.60 1018.71 1018.59 1018.48 1018.35 1018.12 1017.98 1017.95 1017.89 1017.74 1017.55 1017.34 1017.07 1016.79 1016.47 1016.17 1015.88 1015.38 1015.27 1015.19
1014.87 1015.38 1015.71 1016.38 1017.00 1017.69 1017.96 1018.20 1018.40 1018.43 1018.58 1018.67 1018.36 1018.02 1017.90 1017.92 1017.76 1017.90 1018.04 1017.99 1018.20 1018.53 1018.83 1018.98 1018.95 1018.91 1018.68 1018.64 1018.33 1018.17 1018.13 1017.95 1017.84 1017.72 1017.45 1017.09 1016.74 1016.35 1015.95 1015.63 1015.27 1014.99 1014.84
1014.64 1015.20 1015.76 1016.27 1016.93 1017.64 1018.12 1018.31 1018.41 1018.72 1018.93 1018.72 1018.65 1018.51 1018.40 1018.05 1018.00 1018.05 1017.93 1018.23 1018.40 1018.60 1018.82 1018.93 1019.02 1019.00 1018.97 1018.79 1018.69 1018.45 1018.16 1018.03 1018.04 1017.81 1017.53 1017.18 1016.79 1016.43 1015.93 1015.42 1015.04 1014.74 1014.47
1014.27 1014.82 1015.69 1016.42 1017.00 1017.63 1018.16 1018.49 1018.56 1019.06 1019.27 1019.24 1019.48 1019.52 1019.35 1019.01 1018.69 1018.28 1018.34 1018.53 1018.68 1018.70 1018.83 1018.85 1018.86 1018.84 1018.95 1018.95 1018.71 1018.42 1018.39 1018.23 1018.13 1017.91 1017.52 1017.07 1016.71 1016.28 1015.77 1015.25 1014.80 1014.37 1014.02
1014.33 1014.91 1015.53 1016.41 1017.10 1017.56 1018.23 1018.59 1018.85 1019.26 1019.63 1019.73 1019.51 1019.78 1019.93 1020.19 1019.83 1018.96 1018.88 1018.92 1019.05 1019.12 1018.96 1018.88 1018.73 1018.76 1018.78 1018.76 1018.62 1018.61 1018.48 1018.28 1018.22 1017.80 1017.31 1016.98 1016.58 1016.12 1015.59 1015.02 1014.47 1013.98 1013.55
1014.63 1015.04 1015.75 1016.31 1017.19 1017.65 1018.24 1018.67 1019.05 1019.34 1019.56 1020.04 1019.95 1019.84 1019.97 1020.26 1020.59 1020.42 1019.60 1019.24 1019.36 1019.35 1019.27 1019.04 1018.76 1018.64 1018.48 1018.52 1018.47 1018.45 1018.32 1018.08 1017.90 1017.55 1017.18 1016.74 1016.17 1015.61 1015.03 1014.49 1014.07 1013.69 1013.29
1014.68 1015.33 1015.71 1016.56 1017.24 1017.76 1018.33 1018.76 1019.13 1019.43 1019.68 1020.05 1020.30 1020.43 1020.42 1020.39 1020.45 1020.96 1020.60 1020.21 1019.94 1019.66 1019.53 1019.32 1018.96 1018.64 1018.29 1018.20 1018.25 1018.19 1018.07 1018.01 1017.79 1017.46 1016.95 1016.30 1015.65 1015.11 1014.55 1014.12 1013.84 1013.46 1013.36
1014.90 1015.40 1015.94 1016.63 1017.32 1017.79 1018.38 1018.91 1019.27 1019.56 1019.86 1020.09 1020.30 1020.55 1020.78 1020.93 1020.94 1021.16 1021.21 1020.78 1020.65 1019.90 1019.70 1019.38 1018.88 1018.55 1018.28 1018.18 1018.07 1018.01 1018.03 1017.94 1017.64 1017.18 1016.56 1015.88 1015.23 1014.76 1014.39 1014.06 1013.75 1013.33 1013.07
1014.90 1015.52 1015.94 1016.75 1017.49 1017.77 1018.29 1018.76 1019.25 1019.61 1019.90 1020.22 1020.35 1020.63 1020.70 1020.94 1020.97 1021.12 1021.34 1021.21 1020.89 1020.11 1019.74 1019.23 1018.89 1018.67 1018.25 1018.34 1018.25 1017.92 1017.78 1017.52 1017.28 1016.75 1016.09 1015.35 1014.81 1014.52 1014.23 1013.87 1013.38 1013.09 1012.72
1014.66 1015.32 1015.95 1016.78 1017.38 1017.76 1018.29 1018.67 1019.19 1019.51 1019.84 1020.10 1020.30 1020.54 1020.68 1020.84 1020.95 1021.12 1021.38 1021.58 1021.09 1020.69 1020.13 1019.63 1019.22 1018.78 1018.70 1018.44 1018.11 1017.72 1017.59 1017.29 1016.84 1016.22 1015.51 1014.90 1014.53 1014.29 1013.96 1013.43 1012.85 1012.59 1012.12
1014.52 1015.39 1016.02 1016.77 1017.31 1017.81 1018.28 1018.71 1019.17 1019.45 1019.70 1019.92 1020.17 1020.40 1020.54 1020.65 1020.86 1021.01 1021.17 1021.40 1021.55 1021.09 1020.19 1019.57 1019.46 1018.90 1018.74 1018.32 1018.03 1017.61 1017.19 1016.76 1016.21 1015.66 1015.14 1014.63 1014.21 1013.67 1013.16 1012.57 1012.11 1011.70 1011.33
1014.43 1015.41 1016.03 1016.82 1017.32 1017.91 1018.39 1018.84 1019.16 1019.39 1019.67 1019.86 1020.00 1020.22 1020.41 1020.63 1020.87 1021.02 1021.10 1021.15 1021.23 1021.19 1020.40 1019.86 1019.56 1019.17 1018.68 1018.11 1017.73 1017.19 1016.74 1016.19 1015.76 1015.30 1014.71 1014.08 1013.44 1012.84 1012.38 1011.87 1011.40 1011.07 1010.70
1014.57 1015.55 1016.13 1016.87 1017.27 1017.86 1018.32 1018.69 1018.94 1019.28 1019.51 1019.74 1019.88 1020.09 1020.38 1020.59 1020.75 1020.85 1020.87 1020.90 1020.99 1020.89 1020.37 1019.48 1019.29 1018.85 1018.44 1017.94 1017.38 1016.91 1016.34 1015.87 1015.23 1014.62 1013.97 1013.29 1012.72 1012.12 1011.59 1011.08 1010.58 1009.97 1009.58
1014.86 1015.67 1016.36 1016.94 1017.43 1017.96 1018.40 1018.75 1018.99 1019.23 1019.43 1019.65 1019.78 1020.01 1020.32 1020.36 1020.54 1020.57 1020.67 1020.82 1020.81 1020.62 1020.36 1019.42 1019.11 1018.75 1018.39 1017.78 1017.10 1016.60 1015.86 1015.24 1014.58 1013.91 1013.27 1012.72 1012.14 1011.58 1011.03 1010.45 1009.71 1009.19 1008.72
1015.26 1015.89 1016.57 1017.17 1017.72 1018.21 1018.55 1018.89 1019.14 1019.33 1019.52 1019.59 1019.63 1019.83 1020.04 1020.15 1020.34 1020.37 1020.50 1020.69 1020.63 1020.29 1020.08 1019.64 1018.84 1018.54 1017.98 1017.50 1016.77 1016.14 1015.39 1014.64 1014.09 1013.54 1012.96 1012.36 1011.72 1010.95 1010.24 1009.49 1008.73 1008.06 1007.67
1015.55 1016.24 1016.96 1017.44 1017.97 1018.44 1018.81 1019.10 1019.32 1019.47 1019.58 1019.54 1019.49 1019.53 1019.62 1019.76 1019.89 1020.01 1020.13 1020.20 1019.98 1019.91 1019.68 1019.32 1018.70 1018.13 1017.61 1016.95 1016.41 1015.66 1014.74 1014.40 1013.63 1013.18 1012.61 1011.64 1011.03 1010.20 1009.54 1008.87 1008.37 1007.69 1007.14
1015.89 1016.46 1017.14 1017.82 1018.34 1018.69 1019.15 1019.45 1019.62 1019.72 1019.69 1019.58 1019.49 1019.35 1019.33 1019.45 1019.45 1019.42 1019.32 1019.44 1019.45 1019.26 1019.03 1018.78 1018.15 1017.47 1017.10 1016.42 1016.06 1015.39 1014.64 1013.81 1013.06 1012.52 1011.88 1010.82 1010.50 1009.70 1009.02 1008.24 1007.63 1006.95 1006.34
1016.26 1016.78 1017.47 1017.91 1018.40 1018.90 1019.45 1019.61 1019.77 1019.85 1019.79 1019.68 1019.51 1019.30 1019.26 1019.29 1019.21 1019.04 1018.99 1018.91 1018.76 1018.47 1018.34 1018.06 1017.53 1016.97 1016.41 1015.95 1015.59 1015.07 1014.29 1013.52 1012.11 1011.83 1011.39 1010.03 1010.03 1008.65 1008.14 1007.52 1006.68 1005.78 1005.13
1016.68 1017.28 1017.61 1018.15 1018.43 1019.17 1019.46 1019.70 1019.83 1019.86 1019.75 1019.56 1019.39 1019.17 1019.13 1019.01 1018.84 1018.66 1018.55 1018.34 1018.26 1018.17 1017.84 1017.44 1016.92 1016.43 1015.76 1015.38 1015.01 1014.23 1013.57 1012.97 1012.19 1011.21 1011.13 1009.37 1008.87 1007.84 1007.29 1006.48 1005.86 1004.82 1004.06
1016.92 1017.31 1017.87 1018.30 1018.58 1019.21 1019.52 1019.69 1019.71 1019.71 1019.65 1019.42 1019.18 1018.98 1018.83 1018.61 1018.34 1018.06 1017.86 1017.82 1017.79 1017.61 1017.26 1016.82 1016.27 1015.63 1015.16 1014.46 1014.10 1013.39 1012.75 1012.18 1011.18 1010.57 1010.43 1009.39 1007.87 1006.94 1006.32 1005.66 1004.86 1003.96 1003.16
1017.23 1017.61 1017.93 1018.39 1019.01 1019.37 1019.48 1019.49 1019.62 1019.75 1019.64 1019.41 1019.09 1018.79 1018.48 1018.18 1017.88 1017.55 1017.29 1017.32 1017.19 1016.87 1016.52 1016.02 1015.48 1014.94 1014.26 1013.71 1013.15 1012.68 1012.28 1011.85 1010.64 1009.69 1009.56 1009.00 1007.54 1006.47 1005.64 1004.45 1003.72 1002.98 1002.33
1017.32 1017.80 1018.41 1018.76 1018.98 1019.21 1019.26 1019.43 1019.52 1019.56 1019.70 1019.42 1019.02 1018.71 1018.40 1017.98 1017.62 1017.22 1016.92 1016.74 1016.58 1016.34 1015.94 1015.45 1014.94 1014.44 1013.91 1013.44 1012.80 1012.59 1012.18 1011.82 1010.96 1009.29 1008.58 1008.66 1007.49 1007.10 1004.43 1003.38 1002.75 1002.42 1001.58
Thickness
5685 5683 5679 5675 5673 5673 5670 5668 5668 5666 5665 5664 5665 5665 5663 5662 5662 5658 5656 5653 5650 5649 5648 5648 5645 5643 5643 5642 5640 5638 5637 5635 5635 5637 5637 5637 5638 5639 5640 5641 5641 5642 5643
5680 5677 5672 5667 5665 5664 5662 5662 5659 5657 5655 5654 5656 5656 5655 5654 5652 5650 5647 5644 5643 5639 5638 5637 5634 5633 5632 5632 5632 5629 5629 5628 5627 5627 5628 5629 5629 5629 5630 5632 5632 5633 5634
5675 5669 5664 5660 5657 5656 5656 5653 5649 5648 5645 5645 5646 5648 5646 5643 5643 5642 5639 5636 5634 5631 5628 5627 5623 5623 5621 5621 5621 5620 5619 5618 5618 5618 5617 5618 5618 5619 5619 5621 5622 5622 5623
5670 5663 5657 5653 5651 5649 5645 5642 5639 5636 5635 5635 5635 5637 5636 5635 5634 5633 5630 5628 5625 5621 5617 5617 5614 5613 5611 5610 5610 5608 5607 5607 5606 5607 5606 5606 5606 5607 5608 5611 5611 5610 5611
5663 5658 5653 5648 5643 5639 5636 5634 5629 5627 5626 5626 5628 5629 5628 5627 5626 5625 5622 5620 5616 5612 5609 5606 5602 5602 5601 5599 5598 5597 5595 5594 5593 5593 5593 5593 5593 5594 5595 5596 5600 5599 5597
5655 5651 5647 5641 5635 5630 5627 5624 5621 5620 5618 5617 5620 5622 5620 5619 5618 5615 5612 5611 5607 5601 5597 5594 5592 5590 5589 5586 5585 5583 5582 5581 5580 5578 5578 5580 5580 5581 5581 5582 5584 5586 5585
5650 5645 5640 5635 5630 5623 5618 5616 5614 5610 5607 5608 5609 5609 5608 5609 5608 5605 5603 5599 5595 5590 5586 5583 5579 5577 5575 5572 5571 5569 5569 5567 5564 5562 5562 5562 5563 5564 5566 5567 5568 5569 5571
5646 5641 5634 5628 5623 5616 5610 5607 5605 5600 5597 5595 5592 5590 5590 5593 5591 5593 5591 5586 5581 5579 5574 5571 5568 5565 5562 5560 5558 5556 5553 5551 5548 5546 5546 5546 5546 5547 5549 5550 5551 5553 5555
5637 5632 5627 5619 5614 5609 5602 5598 5595 5590 5586 5583 5583 5579 5574 5571 5570 5578 5575 5571 5567 5563 5561 5558 5556 5552 5548 5545 5543 5539 5536 5534 5529 5529 5529 5528 5528 5528 5529 5531 5533 5535 5537
5627 5623 5618 5612 5605 5600 5594 5589 5585 5581 5577 5572 5570 5569 5565 5560 5552 5549 5557 5557 5552 5548 5546 5544 5541 5537 5534 5531 5527 5522 5518 5515 5512 5511 5510 5509 5510 5510 5511 5512 5513 5514 5515
5618 5613 5610 5603 5597 5591 5585 5580 5575 5571 5567 5562 5558 5554 5551 5548 5544 5536 5534 5536 5535 5533 5531 5529 5528 5527 5524 5519 5513 5507 5501 5497 5496 5494 5494 5493 5492 5492 5492 5492 5491 5491 5489
5609 5605 5600 5594 5588 5583 5576 5570 5565 5561 5556 5552 5547 5542 5537 5532 5528 5523 5520 5521 5519 5522 5517 5515 5513 5511 5508 5504 5498 5493 5487 5483 5480 5478 5476 5475 5475 5473 5472 5470 5468 5467 5465
5601 5596 5592 5585 5579 5574 5568 5562 5556 5550 5546 5540 5536 5530 5526 5521 5517 5512 5507 5503 5502 5507 5504 5502 5497 5493 5490 5484 5480 5475 5470 5467 5462 5459 5457 5456 5454 5450 5447 5445 5443 5440 5438
5596 5591 5584 5578 5571 5566 5560 5554 5548 5542 5536 5530 5526 5520 5515 5510 5505 5500 5493 5485 5487 5485 5487 5482 5480 5475 5470 5464 5460 5456 5452 5447 5442 5440 5439 5436 5432 5427 5422 5419 5416 5411 5408
5589 5581 5577 5570 5564 5558 5551 5545 5538 5533 5527 5522 5516 5510 5505 5500 5494 5487 5481 5473 5464 5465 5472 5468 5460 5457 5451 5446 5440 5435 5433 5427 5423 5418 5414 5409 5403 5398 5392 5388 5382 5376 5371
5581 5574 5568 5562 5556 5549 5541 5535 5529 5524 5518 5513 5508 5501 5494 5488 5481 5474 5467 5460 5453 5445 5448 5445 5440 5434 5430 5426 5419 5415 5411 5406 5398 5390 5382 5376 5370 5366 5358 5350 5346 5342 5339
5571 5564 5559 5552 5547 5539 5533 5527 5522 5515 5509 5503 5497 5491 5484 5477 5469 5462 5454 5447 5439 5431 5430 5433 5423 5417 5410 5404 5400 5393 5386 5379 5371 5360 5350 5343 5337 5333 5330 5330 5328 5327 5327
5561 5555 5548 5543 5536 5529 5523 5517 5511 5505 5499 5493 5486 5480 5472 5467 5457 5449 5441 5432 5424 5416 5409 5411 5405 5398 5389 5382 5377 5370 5362 5351 5340 5330 5321 5316 5316 5313 5313 5315 5318 5320 5323
5549 5544 5538 5531 5525 5519 5512 5506 5500 5494 5487 5482 5476 5469 5461 5453 5444 5436 5426 5416 5408 5402 5392 5387 5386 5375 5368 5356 5353 5344 5334 5325 5312 5305 5301 5300 5304 5304 5306 5308 5312 5317 5318
5538 5533 5526 5520 5513 5507 5500 5494 5487 5481 5475 5470 5465 5458 5450 5442 5433 5423 5414 5403 5396 5386 5377 5368 5363 5356 5345 5335 5324 5316 5312 5300 5295 5291 5291 5293 5296 5298 5298 5302 5304 5308 5310
5528 5523 5515 5507 5501 5495 5487 5480 5474 5469 5464 5458 5452 5446 5439 5430 5421 5413 5404 5392 5382 5372 5362 5351 5347 5337 5321 5312 5301 5295 5292 5291 5288 5284 5289 5288 5290 5291 5293 5296 5298 5302 5304
5517 5511 5504 5498 5491 5483 5474 5469 5463 5456 5451 5445 5440 5433 5424 5415 5407 5400 5390 5379 5368 5357 5345 5334 5325 5314 5303 5294 5288 5284 5282 5283 5290 5275 5279 5287 5280 5290 5289 5291 5294 5300 5302
5506 5499 5493 5487 5482 5470 5465 5458 5452 5445 5439 5433 5426 5420 5412 5404 5396 5387 5379 5368 5354 5338 5324 5311 5302 5293 5290 5284 5281 5279 5275 5274 5273 5273 5270 5283 5280 5286 5284 5287 5288 5297 5300
5495 5490 5484 5476 5470 5461 5454 5447 5442 5434 5427 5421 5414 5408 5399 5392 5384 5377 5367 5354 5337 5318 5304 5293 5286 5283 5279 5277 5272 5272 5270 5270 5271 5266 5261 5270 5278 5281 5282 5281 5283 5292 5295
5486 5479 5473 5466 5457 5450 5444 5437 5430 5421 5414 5408 5402 5394 5388 5380 5372 5364 5353 5334 5320 5303 5291 5282 5278 5275 5272 5267 5264 5264 5260 5257 5263 5262 5251 5257 5266 5272 5275 5281 5280 5286 5290
5476 5469 5461 5454 5447 5439 5435 5427 5418 5410 5403 5397 5389 5380 5372 5365 5356 5346 5333 5319 5303 5291 5284 5278 5271 5266 5263 5261 5256 5250 5247 5244 5244 5254 5245 5245 5251 5250 5274 5278 5275 5276 5285